AirNav   Everest Fuels
 
 1394 users online  

8MO0 Barnes Jewish St Peters Hospital Heliport
St Peters, Missouri, USA

GOING TO ST PETERS?


FAA INFORMATION EFFECTIVE 02 JANUARY 2020

Location

FAA Identifier: 8MO0
Lat/Long: 38-47-38.2100N 090-34-51.5200W
38-47.636833N 090-34.858667W
38.7939472,-90.5809778
(estimated)
Elevation: 513 ft. / 156 m (estimated)
Variation: 02E (1985)
From city: 1 mile E of ST PETERS, MO
Time zone: UTC -6 (UTC -5 during Daylight Saving Time)
Zip code: 63376

Heliport Operations

Heliport use: Private use, MEDICAL USE.
Activation date: 08/1991
Control tower: no
ARTCC: KANSAS CITY CENTER
FSS: SAINT LOUIS FLIGHT SERVICE STATION
Attendance: CONTINUOUS
Wind indicator: yes
Segmented circle: no
Lights: FOR FLOOD LGTS CALL 636-916-9000.

Heliport Communications

WX ASOS at SUS (9 nm SW): 134.8 (314-890-7255)
WX ASOS at STL (10 nm E): 125.025 (314-890-4790)
WX ASOS at SET (11 nm NE): 118.075 (636-250-4590)

Nearby radio navigation aids

VOR radial/distance  VOR name  Freq  Var
STLr228/6.1ST LOUIS VORTAC117.4001E
FTZr067/19.2FORISTELL VORTAC110.8005E
TOYr272/31.2TROY VORTAC116.0004E

 
NDB name  Hdg/Dist  Freq  Var  ID
OBLIO267/5.033801WLM .-.. --
EAVES348/7.222701WFZ ..-. --..
SNOOP044/12.732601WSU ... ..-
ZUMAY272/14.140401WST ... -
CIVIC MEMORIAL257/25.226301WCVM -.-. ...- --

Heliport Services

Runway Information

Helipad H1

Dimensions: 50 x 50 ft. / 15 x 15 m
Surface: concrete
Runway edge lights: FLD
Latitude: 38-47.636833N
Longitude: 090-34.858667W
Elevation: 513.0 ft.
Traffic pattern: leftleft

Heliport Ownership and Management from official FAA records

Ownership: Privately-owned
Owner: BARNES-JEWISH ST PETERS HOSPITAL
10 HOSPITAL DR
ST PETERS, MO 63376
Phone 636-916-9000
Manager: TERRY BANISTER
10 HOSPITAL DR
ST PETERS, MO 63376
Phone 636-916-9000
TERRY BANISTER 636-916-9242.

Additional Remarks

FOR CD CTC ST LOUIS APCH AT 314-890-1018.

Instrument Procedures

There are no published instrument procedures at 8MO0.

Some nearby airports with instrument procedures:

1H0 - Creve Coeur Airport (5 nm SE)
KSUS - Spirit of St Louis Airport (9 nm SW)
KSTL - St Louis Lambert International Airport (10 nm E)
KSET - St Charles County Smartt Airport (11 nm NE)
KFYG - Washington Regional Airport (23 nm SW)
 
Loc | Ops | Rwys | IFR | FBO | Links
Com | Nav | Svcs | Stats | Notes

Kansas City Aviation Department
 
Area around 8MO0 (Barnes Jewish St Peters Hospital Heliport)
 
Road maps at: MapQuest Bing Google
 
Aerial photo
No photo
 
Sectional chart

 
Airport distance calculator
Flying to Barnes Jewish St Peters Hospital Heliport? Find the distance to fly.

From to 8MO0

Sunrise and sunset
Times for 25-Jan-2020
 Local
(UTC-6)
 Zulu
(UTC)
Morning civil twilight06:4612:46
Sunrise07:1513:15
Sunset17:1523:15
Evening civil twilight17:4323:43

Current date and time
Zulu (UTC)  25-Jan-2020 06:06:11
Local (UTC-6)  25-Jan-2020 00:06:11
 
METAR
KSUS 
9nm S 
250554Z AUTO 26007KT 7SM OVC015 01/00 A2998 RMK AO2 SLP158 60000 T00110000 10017 20011 400170006 53008
KSTL 
10nm E 
250551Z 27010KT 5SM -SN BR OVC013 01/M01 A2997 RMK AO2 SLP156 P0000 60001 T00111011 10017 20011 400220006 53008
KSET 
11nm NE 
250554Z AUTO 26009KT 6SM HZ OVC013 08/M01 A2996 RMK AO2 SLP147 T00831006 10100 20017 401000006 53009
TAF
KSUS 
9nm S 
241733Z 2418/2518 27005KT 6SM BR VCSH OVC007 TEMPO 2418/2420 3SM -SN BR FM250200 28006KT 3SM BR OVC004 FM251400 27010G16KT P6SM OVC008
KSTL 
10nm E 
241733Z 2418/2524 26006KT 5SM BR VCSH OVC003 TEMPO 2418/2420 3SM -SN BR FM242000 28005KT 3SM BR VCSH OVC004 FM251300 28010G17KT P6SM OVC008 FM251800 29009KT P6SM OVC012
NOTAMs
Click for the latest NOTAMs
NOTAMs are issued by the DoD/FAA and will open in a separate window not controlled by AirNav.

 

 
 

Would you like to see your business listed on this page?

 If your business provides an interesting product or service to pilots, flight crews, aircraft, or users of the Barnes Jewish St Peters Hospital Heliport, you should consider listing it here.  To start the listing process, click on the button below
 
Add a business
 

Other Pages about Barnes Jewish St Peters Hospital Heliport

Update a link
 
Copyright © AirNav, LLC. All rights reserved. Privacy Policy  Contact